�N����,�����b,�ŏ������i�x�j,���ϕ����i�x�j,�ő啗���i�x�j,�ŏ�����(m/s),���ϕ���(m/s),�ő啗��(m/s),�C��(���j,���x�i���j,�C��(hPa),�~�J��(mm),�~�J����(�b�j,�~�J���x(mm/h),�~�Ђ傤��(hit/���u),�~�Ђ傤����(�b�j,�~�Ђ傤���x(hit/���uh),�q�[�^���x(���j,�q�[�^�[�d���iV),�d���d���iV),�Q�Ɠd���iV)
2009/07/01,00:00:01,86,226,37,1.5,6.8,9.1,27.2,81.7,1004.0,0.00,0,0.0,0.0,0,0.0,26.3,0.0,11.6,3.469
2009/07/01,00:10:01,86,229,37,0.4,6.7,8.8,27.2,81.7,1004.1,0.00,0,0.0,0.0,0,0.0,26.3,0.0,11.7,3.470
2009/07/01,00:20:01,87,226,36,3.9,6.7,8.8,27.2,82.6,1004.0,0.00,0,0.0,0.0,0,0.0,26.3,0.0,11.8,3.470
2009/07/01,00:30:01,90,224,37,0.4,7.2,9.8,27.3,84.1,1003.9,0.00,0,0.0,0.0,0,0.0,26.3,0.0,11.9,3.472
2009/07/01,00:40:01,90,225,37,0.1,7.1,11.7,27.2,84.5,1003.9,0.00,0,0.0,0.0,0,0.0,26.3,0.0,11.8,3.470
2009/07/01,00:50:01,90,224,39,0.3,7.2,10.0,27.2,84.9,1003.8,0.00,0,0.0,0.0,0,0.0,26.1,0.0,11.7,3.470
2009/07/01,01:00:01,86,225,37,1.0,7.1,9.4,27.2,85.2,1003.7,0.00,0,0.0,0.0,0,0.0,26.1,0.0,11.9,3.469
2009/07/01,01:10:01,86,228,45,0.2,6.8,10.2,27.0,85.2,1003.5,0.00,0,0.0,0.0,0,0.0,26.3,0.0,11.8,3.469
2009/07/01,01:20:01,88,224,38,0.3,6.7,9.2,26.8,85.0,1003.4,0.00,0,0.0,0.0,0,0.0,25.9,0.0,11.8,3.470
2009/07/01,01:30:01,38,217,36,0.4,7.0,10.2,26.8,85.1,1003.3,0.00,0,0.0,0.0,0,0.0,25.9,0.0,11.6,3.470
2009/07/01,01:40:01,42,222,41,1.9,6.8,10.1,26.7,85.3,1003.1,0.00,0,0.0,0.0,0,0.0,25.8,0.0,11.9,3.470
2009/07/01,01:50:01,41,221,39,0.3,7.0,10.6,26.8,85.5,1003.1,0.00,0,0.0,0.0,0,0.0,25.8,0.0,11.8,3.473
2009/07/01,02:00:01,43,222,41,0.3,7.0,11.1,26.8,85.3,1002.9,0.00,0,0.0,0.0,0,0.0,25.9,0.0,11.9,3.470
2009/07/01,02:10:01,41,220,40,0.3,7.0,10.9,26.8,85.3,1002.8,0.00,0,0.0,0.0,0,0.0,25.9,0.0,11.7,3.469
2009/07/01,02:20:01,42,221,40,0.3,6.9,11.0,26.8,85.0,1002.8,0.00,0,0.0,0.0,0,0.0,25.8,0.0,11.9,3.469
2009/07/01,02:30:01,41,220,41,0.2,6.8,10.5,26.8,84.4,1002.7,0.00,0,0.0,0.0,0,0.0,25.8,0.0,11.8,3.469
2009/07/01,02:40:01,39,219,39,0.2,6.8,9.7,26.8,83.8,1002.5,0.00,0,0.0,0.0,0,0.0,25.8,0.0,11.9,3.470
2009/07/01,02:50:01,37,213,36,0.3,6.8,10.3,26.7,83.0,1002.5,0.00,0,0.0,0.0,0,0.0,25.8,0.0,11.6,3.470
2009/07/01,03:00:01,21,187,326,0.1,6.7,10.6,26.7,82.5,1002.3,0.00,0,0.0,0.0,0,0.0,25.8,0.0,11.7,3.472
2009/07/01,03:10:01,13,185,326,0.4,6.9,10.9,26.8,82.6,1002.2,0.00,0,0.0,0.0,0,0.0,25.8,0.0,11.6,3.470
2009/07/01,03:20:01,11,190,329,0.1,7.1,14.0,27.0,81.4,1002.2,0.00,0,0.0,0.0,0,0.0,26.8,0.0,11.9,3.470
2009/07/01,03:30:01,8,187,328,0.1,7.4,12.2,27.1,80.9,1002.0,0.00,0,0.0,0.0,0,0.0,26.1,0.0,11.9,3.470
2009/07/01,03:40:01,10,183,359,0.3,7.0,12.7,27.0,80.5,1001.9,0.00,0,0.0,0.0,0,0.0,26.3,0.0,11.6,3.469
2009/07/01,03:50:01,9,187,322,0.6,7.3,11.8,27.1,80.2,1001.9,0.00,0,0.0,0.0,0,0.0,26.1,0.0,11.9,3.470
2009/07/01,04:00:01,14,192,13,0.3,7.1,11.5,27.1,79.9,1002.0,0.00,0,0.0,0.0,0,0.0,25.9,0.0,11.6,3.470
2009/07/01,04:10:01,13,192,12,0.3,7.2,11.0,27.1,80.4,1002.1,0.00,0,0.0,0.0,0,0.0,26.1,0.0,11.8,3.470
2009/07/01,04:20:01,14,194,12,0.1,7.0,10.9,27.1,81.3,1002.1,0.00,0,0.0,0.0,0,0.0,25.9,0.0,11.9,3.472
2009/07/01,04:30:01,19,199,19,0.8,7.2,10.5,27.0,81.3,1002.1,0.00,0,0.0,0.0,0,0.0,26.1,0.0,11.6,3.470
2009/07/01,04:40:01,23,202,22,0.3,7.0,10.2,27.0,81.8,1002.2,0.00,0,0.0,0.0,0,0.0,25.9,0.0,11.8,3.470
2009/07/01,04:50:01,24,204,22,0.3,7.1,9.8,27.1,83.4,1002.1,0.00,0,0.0,0.0,0,0.0,26.1,0.0,11.7,3.472
2009/07/01,05:00:01,26,204,25,0.5,7.2,11.1,27.0,84.4,1002.0,0.00,0,0.0,0.0,0,0.0,25.9,0.0,11.9,3.470
2009/07/01,05:10:01,20,198,16,0.5,6.9,10.5,26.9,85.0,1001.9,0.00,0,0.0,0.0,0,0.0,25.9,0.0,11.8,3.469
2009/07/01,05:20:01,15,191,330,0.3,6.9,10.2,26.7,84.8,1001.8,0.00,0,0.0,0.0,0,0.0,25.8,0.0,11.7,3.469
2009/07/01,05:30:01,20,198,18,0.4,7.2,11.7,26.8,84.1,1001.9,0.00,0,0.0,0.0,0,0.0,25.9,0.0,11.6,3.470
2009/07/01,05:40:01,13,192,328,0.6,7.1,10.9,26.8,83.9,1002.0,0.00,0,0.0,0.0,0,0.0,25.9,0.0,11.9,3.470
2009/07/01,05:50:01,14,195,12,0.4,6.9,11.9,26.9,84.1,1002.0,0.00,0,0.0,0.0,0,0.0,26.4,0.0,11.8,3.470
2009/07/01,06:00:01,11,188,331,0.1,7.2,11.7,27.0,83.9,1002.0,0.00,0,0.0,0.0,0,0.0,26.3,0.0,11.7,3.470
2009/07/01,06:10:01,10,183,339,0.1,7.0,11.5,27.0,83.4,1002.1,0.00,0,0.0,0.0,0,0.0,26.4,0.0,11.9,3.470
2009/07/01,06:20:01,1,177,327,0.2,6.7,11.8,27.1,82.5,1002.1,0.00,0,0.0,0.0,0,0.0,26.9,0.0,11.7,3.469
2009/07/01,06:30:01,14,178,329,0.1,6.5,10.2,27.4,81.1,1002.1,0.00,0,0.0,0.0,0,0.0,27.6,0.0,12.0,3.469
2009/07/01,06:40:01,12,179,327,0.0,6.3,11.3,27.5,79.2,1002.2,0.00,0,0.0,0.0,0,0.0,28.1,0.0,12.0,3.469
2009/07/01,06:50:01,12,191,7,0.2,6.9,12.0,27.7,77.9,1002.3,0.00,0,0.0,0.0,0,0.0,28.5,0.0,11.8,3.469
2009/07/01,07:00:01,16,193,15,0.4,7.0,12.7,27.9,77.3,1002.4,0.00,0,0.0,0.0,0,0.0,29.0,0.0,11.9,3.468
2009/07/01,07:10:01,8,186,324,0.0,7.0,11.9,28.1,76.5,1002.3,0.00,0,0.0,0.0,0,0.0,29.3,0.0,11.7,3.468
2009/07/01,07:20:01,11,188,356,0.2,7.1,12.1,28.2,77.0,1002.3,0.00,0,0.0,0.0,0,0.0,29.6,0.0,11.7,3.469
2009/07/01,07:30:01,9,189,7,0.1,7.2,12.0,28.3,76.7,1002.3,0.00,0,0.0,0.0,0,0.0,30.0,0.0,11.8,3.468
2009/07/01,07:40:01,16,195,15,0.1,7.6,13.2,28.4,77.7,1002.2,0.00,0,0.0,0.0,0,0.0,30.1,0.0,11.6,3.470
2009/07/01,07:50:01,10,190,9,0.3,7.3,12.6,28.5,77.4,1002.2,0.00,0,0.0,0.0,0,0.0,30.5,0.0,11.9,3.468
2009/07/01,08:00:01,22,203,21,0.2,7.8,12.5,28.6,77.3,1002.3,0.00,0,0.0,0.0,0,0.0,30.6,0.0,11.9,3.468
2009/07/01,08:10:01,26,204,25,0.8,7.8,13.7,28.7,76.8,1002.3,0.00,0,0.0,0.0,0,0.0,31.0,0.0,11.7,3.468
2009/07/01,08:20:01,15,195,14,0.1,7.6,12.7,28.9,76.1,1002.3,0.00,0,0.0,0.0,0,0.0,31.1,0.0,12.0,3.468
2009/07/01,08:30:01,17,197,17,0.4,7.7,12.9,29.0,75.0,1002.3,0.00,0,0.0,0.0,0,0.0,31.5,0.0,11.8,3.468
2009/07/01,08:40:01,22,202,22,0.3,7.8,13.5,29.1,74.6,1002.2,0.00,0,0.0,0.0,0,0.0,31.5,0.0,11.9,3.468
2009/07/01,08:50:01,17,197,16,0.5,7.9,12.8,29.3,74.9,1002.3,0.00,0,0.0,0.0,0,0.0,32.0,0.0,11.7,3.469
2009/07/01,09:00:01,25,203,22,0.1,7.8,13.2,29.4,73.2,1002.4,0.00,0,0.0,0.0,0,0.0,32.3,0.0,11.7,3.468
2009/07/01,09:10:01,39,222,35,0.1,8.0,12.8,29.4,73.9,1002.4,0.00,0,0.0,0.0,0,0.0,32.1,0.0,11.7,3.469
2009/07/01,09:20:01,96,228,44,0.1,8.0,12.2,29.6,74.4,1002.3,0.00,0,0.0,0.0,0,0.0,32.3,0.0,11.8,3.468
2009/07/01,09:30:01,52,231,45,0.4,8.1,15.3,29.6,71.3,1002.3,0.00,0,0.0,0.0,0,0.0,32.6,0.0,11.9,3.468
2009/07/01,09:40:01,54,232,50,0.1,8.3,14.3,29.7,71.4,1002.4,0.00,0,0.0,0.0,0,0.0,32.1,0.0,11.7,3.468
2009/07/01,09:50:01,69,230,45,0.6,7.9,12.5,29.9,72.9,1002.5,0.00,0,0.0,0.0,0,0.0,32.8,0.0,11.7,3.467
2009/07/01,10:00:01,62,230,47,0.3,8.2,13.1,29.9,70.8,1002.6,0.00,0,0.0,0.0,0,0.0,32.8,0.0,12.1,3.467
2009/07/01,10:10:01,52,230,48,0.4,8.1,12.4,30.0,71.6,1002.5,0.00,0,0.0,0.0,0,0.0,33.1,0.0,11.9,3.468
2009/07/01,10:20:01,86,232,42,0.4,7.8,13.0,30.3,72.1,1002.5,0.00,0,0.0,0.0,0,0.0,33.7,0.0,11.8,3.468
2009/07/01,10:30:01,89,234,38,0.1,7.3,11.2,30.4,71.7,1002.5,0.00,0,0.0,0.0,0,0.0,34.5,0.0,11.8,3.467
2009/07/01,10:40:01,93,231,39,0.8,7.7,12.2,30.2,72.2,1002.5,0.00,0,0.0,0.0,0,0.0,34.2,0.0,11.8,3.465
2009/07/01,10:50:01,67,234,37,0.1,7.3,11.0,30.4,72.9,1002.6,0.00,0,0.0,0.0,0,0.0,34.5,0.0,11.6,3.467
2009/07/01,11:00:01,85,247,38,0.1,5.6,10.9,30.5,72.7,1002.5,0.00,0,0.0,0.0,0,0.0,34.8,0.0,11.9,3.467
2009/07/01,11:10:01,82,241,38,0.1,5.9,10.6,30.5,72.7,1002.4,0.00,0,0.0,0.0,0,0.0,34.8,0.0,11.9,3.467
2009/07/01,11:20:01,87,235,38,0.2,7.1,12.6,30.5,73.0,1002.4,0.00,0,0.0,0.0,0,0.0,34.8,0.0,11.8,3.467
2009/07/01,11:30:01,100,236,49,0.4,7.8,13.1,30.2,72.2,1002.2,0.00,0,0.0,0.0,0,0.0,34.0,0.0,11.8,3.467
2009/07/01,11:40:01,56,232,39,0.1,8.2,12.5,30.2,73.1,1002.1,0.00,0,0.0,0.0,0,0.0,33.5,0.0,11.9,3.468
2009/07/01,11:50:01,81,232,42,0.1,8.4,14.5,30.2,73.0,1002.1,0.00,0,0.0,0.0,0,0.0,33.5,0.0,11.7,3.467
2009/07/01,12:00:01,91,235,40,0.3,8.1,13.0,30.3,74.1,1002.1,0.00,0,0.0,0.0,0,0.0,33.8,0.0,11.9,3.468
2009/07/01,12:10:01,93,233,45,0.1,8.2,12.7,30.4,73.5,1002.1,0.00,0,0.0,0.0,0,0.0,33.8,0.0,11.9,3.467
2009/07/01,12:20:01,99,235,54,0.4,8.2,13.2,30.3,72.7,1002.0,0.00,0,0.0,0.0,0,0.0,33.8,0.0,12.0,3.468
2009/07/01,12:30:01,91,234,45,0.3,8.0,13.0,30.2,73.7,1001.9,0.00,0,0.0,0.0,0,0.0,33.5,0.0,11.8,3.468
2009/07/01,12:40:01,54,234,40,0.2,8.1,13.2,30.2,75.0,1001.9,0.00,0,0.0,0.0,0,0.0,33.7,0.0,12.0,3.467
2009/07/01,12:50:01,81,242,40,0.1,6.7,12.4,30.6,73.3,1001.9,0.00,0,0.0,0.0,0,0.0,34.3,0.0,11.9,3.467
2009/07/01,13:00:01,77,249,42,0.1,6.1,13.1,30.7,71.1,1001.8,0.00,0,0.0,0.0,0,0.0,35.2,0.0,11.8,3.465
2009/07/01,13:10:01,82,247,46,0.1,6.2,12.7,30.9,71.4,1001.7,0.00,0,0.0,0.0,0,0.0,35.3,0.0,11.9,3.467
2009/07/01,13:20:01,80,254,58,0.1,6.2,12.3,30.8,71.3,1001.6,0.00,0,0.0,0.0,0,0.0,35.3,0.0,11.7,3.468
2009/07/01,13:30:01,85,250,69,0.1,6.3,12.5,30.9,71.6,1001.7,0.00,0,0.0,0.0,0,0.0,35.0,0.0,11.8,3.465
2009/07/01,13:40:01,89,248,66,0.0,6.9,13.2,30.6,71.5,1001.6,0.00,0,0.0,0.0,0,0.0,34.8,0.0,11.9,3.467
2009/07/01,13:50:01,72,252,54,0.1,5.9,11.1,31.1,71.8,1001.6,0.00,0,0.0,0.0,0,0.0,35.5,0.0,11.7,3.468
2009/07/01,14:00:01,78,255,39,0.0,5.6,11.0,31.2,69.6,1001.5,0.00,0,0.0,0.0,0,0.0,36.2,0.0,11.9,3.467
2009/07/01,14:10:01,88,249,54,0.0,6.4,12.1,30.9,70.1,1001.5,0.00,0,0.0,0.0,0,0.0,35.3,0.0,11.9,3.465
2009/07/01,14:20:01,77,243,42,0.1,7.2,12.9,30.8,70.9,1001.4,0.00,0,0.0,0.0,0,0.0,34.5,0.0,11.9,3.468
2009/07/01,14:30:01,81,250,41,0.1,6.2,12.6,31.0,70.3,1001.4,0.00,0,0.0,0.0,0,0.0,35.0,0.0,11.9,3.467
2009/07/01,14:40:01,82,247,47,0.1,6.8,12.2,30.8,71.4,1001.4,0.00,0,0.0,0.0,0,0.0,34.7,0.0,11.8,3.467
2009/07/01,14:50:01,66,240,41,0.0,7.5,12.7,30.5,73.4,1001.4,0.00,0,0.0,0.0,0,0.0,33.8,0.0,11.8,3.468
2009/07/01,15:00:01,83,248,64,0.2,6.3,10.8,30.9,71.7,1001.4,0.00,0,0.0,0.0,0,0.0,34.7,0.0,11.9,3.467
2009/07/01,15:10:01,83,255,46,0.1,5.8,11.8,30.9,71.7,1001.3,0.00,0,0.0,0.0,0,0.0,34.7,0.0,11.8,3.467
2009/07/01,15:20:01,87,261,42,0.1,6.0,14.0,30.1,74.9,1001.3,0.00,0,0.0,0.0,0,0.0,33.1,0.0,11.8,3.467
2009/07/01,15:30:01,85,261,41,0.1,6.3,14.0,29.8,76.7,1001.5,0.00,0,0.0,0.0,0,0.0,32.1,0.0,11.7,3.469
2009/07/01,15:40:01,83,262,39,0.5,6.1,14.7,29.9,75.4,1001.5,0.00,0,0.0,0.0,0,0.0,32.3,0.0,12.1,3.468
2009/07/01,15:50:01,86,260,54,0.2,5.7,13.5,30.2,75.1,1001.5,0.00,0,0.0,0.0,0,0.0,32.6,0.0,11.7,3.468
2009/07/01,16:00:01,87,262,81,0.0,5.4,12.7,30.5,73.1,1001.5,0.00,0,0.0,0.0,0,0.0,33.1,0.0,12.1,3.467
2009/07/01,16:10:01,79,257,39,0.1,5.7,12.0,30.3,74.1,1001.5,0.00,0,0.0,0.0,0,0.0,33.1,0.0,12.1,3.467
2009/07/01,16:20:01,86,246,51,0.1,6.7,13.5,30.3,73.8,1001.5,0.00,0,0.0,0.0,0,0.0,33.0,0.0,11.8,3.467
2009/07/01,16:30:01,82,238,42,0.3,7.7,14.5,30.0,75.0,1001.4,0.00,0,0.0,0.0,0,0.0,32.3,0.0,11.9,3.468
2009/07/01,16:40:01,72,242,42,0.2,7.9,13.4,29.9,74.6,1001.4,0.00,0,0.0,0.0,0,0.0,31.8,0.0,11.9,3.468
2009/07/01,16:50:01,83,240,39,0.4,7.8,12.7,29.9,75.4,1001.4,0.00,0,0.0,0.0,0,0.0,31.8,0.0,11.9,3.468
2009/07/01,17:00:01,92,237,52,0.7,7.8,12.5,29.9,76.6,1001.4,0.00,0,0.0,0.0,0,0.0,31.6,0.0,11.8,3.469
2009/07/01,17:10:01,91,240,38,0.4,7.1,11.4,30.1,75.2,1001.4,0.00,0,0.0,0.0,0,0.0,32.1,0.0,11.9,3.469
2009/07/01,17:20:01,86,238,39,0.3,7.3,11.6,30.1,74.3,1001.4,0.00,0,0.0,0.0,0,0.0,31.8,0.0,11.7,3.468
2009/07/01,17:30:01,88,238,41,0.9,7.6,12.6,29.8,75.3,1001.3,0.00,0,0.0,0.0,0,0.0,31.5,0.0,11.8,3.468
2009/07/01,17:40:01,65,236,47,0.0,7.2,11.7,29.8,75.0,1001.3,0.00,0,0.0,0.0,0,0.0,31.3,0.0,11.8,3.468
2009/07/01,17:50:01,85,240,41,0.2,7.1,12.3,29.8,74.6,1001.4,0.00,0,0.0,0.0,0,0.0,31.3,0.0,11.7,3.468
2009/07/01,18:00:01,63,234,44,0.3,7.2,11.2,29.6,75.4,1001.4,0.00,0,0.0,0.0,0,0.0,30.6,0.0,11.8,3.469
2009/07/01,18:10:01,87,233,40,0.2,7.0,11.4,29.7,75.6,1001.5,0.00,0,0.0,0.0,0,0.0,31.0,0.0,11.9,3.469
2009/07/01,18:20:01,88,232,37,0.7,7.4,11.4,29.5,76.8,1001.5,0.00,0,0.0,0.0,0,0.0,30.1,0.0,12.0,3.468
2009/07/01,18:30:01,66,229,40,0.4,7.4,14.5,29.2,78.0,1001.4,0.04,30,0.0,0.0,0,0.0,30.0,0.0,11.9,3.469
2009/07/01,18:40:01,86,228,41,0.3,7.5,11.3,29.0,78.2,1001.5,0.00,0,0.0,0.0,0,0.0,29.3,0.0,11.6,3.469
2009/07/01,18:50:01,86,227,41,0.5,7.6,12.0,29.0,77.7,1001.4,0.00,0,0.0,0.0,0,0.0,29.3,0.0,11.9,3.469
2009/07/01,19:00:01,86,228,40,0.4,7.6,12.0,28.8,78.6,1001.4,0.00,0,0.0,0.0,0,0.0,28.8,0.0,11.6,3.469
2009/07/01,19:10:01,56,229,43,0.5,7.7,12.1,28.5,79.2,1001.3,0.00,0,0.0,0.0,0,0.0,28.1,0.0,11.9,3.469
2009/07/01,19:20:01,51,229,44,0.3,7.9,12.6,28.3,79.9,1001.3,0.00,0,0.0,0.0,0,0.0,27.8,0.0,12.0,3.469
2009/07/01,19:30:01,59,228,44,0.5,8.0,13.2,28.3,80.4,1001.2,0.00,0,0.0,0.0,0,0.0,27.6,0.0,12.0,3.469
2009/07/01,19:40:01,52,229,45,0.2,7.7,12.6,28.2,81.0,1001.2,0.00,0,0.0,0.0,0,0.0,27.4,0.0,12.0,3.469
2009/07/01,19:50:01,90,229,39,0.5,7.7,12.7,28.2,81.6,1001.3,0.00,0,0.0,0.0,0,0.0,27.3,0.0,12.1,3.469
2009/07/01,20:00:01,53,230,41,0.1,7.8,11.9,28.1,81.3,1001.3,0.00,0,0.0,0.0,0,0.0,27.3,0.0,11.9,3.469
2009/07/01,20:10:01,86,228,45,0.1,7.7,11.7,28.1,81.9,1001.3,0.00,0,0.0,0.0,0,0.0,27.3,0.0,11.8,3.469
2009/07/01,20:20:01,79,228,39,0.2,7.8,12.4,28.0,82.3,1001.3,0.00,0,0.0,0.0,0,0.0,26.9,0.0,11.8,3.469
2009/07/01,20:30:01,48,225,38,0.7,8.1,12.2,28.0,83.1,1001.6,0.00,0,0.0,0.0,0,0.0,26.9,0.0,11.9,3.469
2009/07/01,20:40:01,48,228,43,0.2,7.7,11.7,28.0,84.2,1001.6,0.00,0,0.0,0.0,0,0.0,27.1,0.0,11.7,3.470
2009/07/01,20:50:01,91,224,38,0.8,7.4,10.4,27.8,82.0,1001.8,0.00,0,0.0,0.0,0,0.0,26.9,0.0,11.7,3.470
2009/07/01,21:00:01,89,226,37,0.1,7.3,11.9,27.8,80.7,1001.8,0.00,0,0.0,0.0,0,0.0,27.1,0.0,11.9,3.470
2009/07/01,21:10:01,91,229,40,0.4,7.3,10.9,27.9,81.1,1001.8,0.00,0,0.0,0.0,0,0.0,26.9,0.0,11.8,3.470
2009/07/01,21:20:01,50,230,44,0.6,7.9,11.8,27.9,79.4,1001.9,0.00,0,0.0,0.0,0,0.0,27.3,0.0,11.7,3.470
2009/07/01,21:30:01,48,227,46,0.1,7.8,12.1,27.9,79.5,1002.0,0.00,0,0.0,0.0,0,0.0,27.1,0.0,11.8,3.470
2009/07/01,21:40:01,100,228,44,0.6,7.8,12.1,27.8,80.2,1002.0,0.00,0,0.0,0.0,0,0.0,26.9,0.0,11.6,3.470
2009/07/01,21:50:01,86,228,42,0.5,7.9,12.0,27.9,81.1,1002.0,0.00,0,0.0,0.0,0,0.0,26.9,0.0,11.9,3.469
2009/07/01,22:00:01,90,225,42,0.7,8.0,11.9,27.8,81.4,1002.0,0.00,0,0.0,0.0,0,0.0,26.9,0.0,11.6,3.470
2009/07/01,22:10:01,86,230,48,0.1,7.6,12.8,27.7,81.3,1002.1,0.00,0,0.0,0.0,0,0.0,26.9,0.0,11.9,3.470
2009/07/01,22:20:01,79,226,38,0.2,7.7,11.8,27.7,81.3,1002.0,0.00,0,0.0,0.0,0,0.0,26.8,0.0,11.9,3.472
2009/07/01,22:30:01,92,230,42,0.4,7.5,11.9,27.6,80.5,1002.0,0.00,0,0.0,0.0,0,0.0,26.8,0.0,11.6,3.470
2009/07/01,22:40:01,51,230,47,0.3,7.5,12.1,27.6,80.2,1002.1,0.00,0,0.0,0.0,0,0.0,26.6,0.0,11.7,3.470
2009/07/01,22:50:01,58,231,50,0.3,7.5,12.4,27.6,80.1,1002.1,0.00,0,0.0,0.0,0,0.0,26.8,0.0,11.7,3.469
2009/07/01,23:00:01,52,229,46,0.2,7.5,12.2,27.5,79.5,1002.0,0.00,0,0.0,0.0,0,0.0,26.8,0.0,11.6,3.470
2009/07/01,23:10:01,53,229,47,0.4,7.7,12.3,27.6,79.2,1002.0,0.00,0,0.0,0.0,0,0.0,26.6,0.0,11.9,3.470
2009/07/01,23:20:01,55,231,49,0.3,7.6,11.9,27.5,79.5,1002.0,0.00,0,0.0,0.0,0,0.0,26.8,0.0,11.6,3.469
2009/07/01,23:30:01,50,228,46,0.6,7.7,12.7,27.5,80.3,1001.8,0.00,0,0.0,0.0,0,0.0,26.6,0.0,11.7,3.469
2009/07/01,23:40:01,52,229,49,0.3,7.6,12.9,27.4,80.5,1001.7,0.00,0,0.0,0.0,0,0.0,26.4,0.0,11.9,3.469
2009/07/01,23:50:01,49,227,46,0.3,7.7,12.9,27.4,80.7,1001.6,0.00,0,0.0,0.0,0,0.0,26.4,0.0,11.9,3.470
2009/07/02,00:00:01,47,227,45,0.4,7.6,13.1,27.4,80.7,1001.5,0.00,0,0.0,0.0,0,0.0,26.8,0.0,11.6,3.469
2009/07/02,00:10:01,46,225,44,0.6,7.6,12.9,27.4,81.2,1001.5,0.00,0,0.0,0.0,0,0.0,25.9,0.0,11.7,3.470
2009/07/02,00:20:01,50,228,46,0.3,7.7,12.9,27.4,81.3,1001.4,0.00,0,0.0,0.0,0,0.0,26.6,0.0,11.6,3.469
2009/07/02,00:30:01,53,229,50,0.4,7.6,12.1,27.4,81.1,1001.3,0.00,0,0.0,0.0,0,0.0,26.3,0.0,11.6,3.469
2009/07/02,00:40:01,54,228,49,0.6,7.6,13.3,27.4,80.5,1001.3,0.00,0,0.0,0.0,0,0.0,26.4,0.0,11.8,3.469
2009/07/02,00:50:01,49,227,46,0.6,7.8,13.2,27.3,80.1,1001.2,0.00,0,0.0,0.0,0,0.0,26.6,0.0,11.6,3.470
2009/07/02,01:00:01,52,229,49,0.5,7.5,13.9,27.3,80.2,1001.2,0.00,0,0.0,0.0,0,0.0,26.4,0.0,11.8,3.469
2009/07/02,01:10:01,48,227,39,0.3,7.9,12.3,27.3,80.4,1001.1,0.00,0,0.0,0.0,0,0.0,26.4,0.0,11.9,3.470
2009/07/02,01:20:01,72,225,41,0.4,7.9,12.4,27.3,80.8,1001.1,0.00,0,0.0,0.0,0,0.0,26.4,0.0,11.9,3.470
2009/07/02,01:30:01,91,228,46,0.3,7.7,12.6,27.3,81.3,1001.1,0.00,0,0.0,0.0,0,0.0,26.4,0.0,11.6,3.469
2009/07/02,01:40:01,50,227,43,0.1,7.7,12.2,27.2,81.5,1000.9,0.00,0,0.0,0.0,0,0.0,26.3,0.0,11.9,3.470
2009/07/02,01:50:01,48,226,44,0.5,7.6,11.8,27.1,81.7,1000.8,0.00,0,0.0,0.0,0,0.0,26.3,0.0,11.6,3.469
2009/07/02,02:00:01,88,227,42,0.2,7.6,12.0,27.1,81.5,1000.8,0.00,0,0.0,0.0,0,0.0,26.3,0.0,11.9,3.470
2009/07/02,02:10:01,59,226,42,0.6,7.8,12.5,27.1,81.2,1000.8,0.00,0,0.0,0.0,0,0.0,26.1,0.0,11.9,3.470
2009/07/02,02:20:01,45,225,43,0.4,7.9,13.4,27.2,80.8,1000.7,0.00,0,0.0,0.0,0,0.0,26.3,0.0,11.6,3.469
2009/07/02,02:30:01,46,225,44,0.3,7.8,12.3,27.1,80.9,1000.6,0.00,0,0.0,0.0,0,0.0,26.3,0.0,11.9,3.470
2009/07/02,02:40:01,86,226,44,0.1,7.8,11.6,27.1,80.9,1000.6,0.00,0,0.0,0.0,0,0.0,26.4,0.0,11.7,3.469
2009/07/02,02:50:01,45,224,42,0.5,7.9,12.1,27.1,81.0,1000.5,0.00,0,0.0,0.0,0,0.0,26.3,0.0,11.6,3.470
2009/07/02,03:00:01,48,224,41,0.4,7.6,12.6,27.1,81.2,1000.4,0.00,0,0.0,0.0,0,0.0,26.3,0.0,11.7,3.470
2009/07/02,03:10:01,49,226,43,0.1,7.7,11.8,27.1,81.2,1000.5,0.00,0,0.0,0.0,0,0.0,26.1,0.0,11.6,3.469
2009/07/02,03:20:01,56,224,42,0.3,8.1,12.2,27.1,80.5,1000.5,0.00,0,0.0,0.0,0,0.0,26.1,0.0,11.7,3.472
2009/07/02,03:30:01,49,227,46,0.9,8.1,12.1,27.1,81.0,1000.5,0.00,0,0.0,0.0,0,0.0,26.3,0.0,11.8,3.469
2009/07/02,03:40:01,49,228,47,0.4,7.9,12.2,27.0,81.3,1000.5,0.00,0,0.0,0.0,0,0.0,26.1,0.0,11.8,3.470
2009/07/02,03:50:01,86,226,42,0.2,7.9,12.8,27.1,83.2,1000.4,0.00,0,0.0,0.0,0,0.0,26.3,0.0,11.6,3.469
2009/07/02,04:00:01,54,225,44,0.3,7.7,12.3,27.1,83.8,1000.4,0.00,0,0.0,0.0,0,0.0,26.3,0.0,11.6,3.470
2009/07/02,04:10:01,88,224,43,0.4,7.7,11.9,27.1,84.3,1000.3,0.00,0,0.0,0.0,0,0.0,26.1,0.0,11.7,3.470
2009/07/02,04:20:01,53,224,42,0.6,7.5,11.6,26.9,84.2,1000.3,0.00,0,0.0,0.0,0,0.0,26.1,0.0,11.7,3.469
2009/07/02,04:30:01,42,220,39,0.4,7.5,11.6,26.8,84.6,1000.3,0.00,0,0.0,0.0,0,0.0,25.9,0.0,11.7,3.470
2009/07/02,04:40:01,43,223,40,0.2,7.7,12.1,26.9,85.0,1000.3,0.00,0,0.0,0.0,0,0.0,26.1,0.0,11.9,3.469
2009/07/02,04:50:01,47,222,42,0.6,7.5,12.5,26.9,85.4,1000.3,0.00,0,0.0,0.0,0,0.0,26.4,0.0,11.6,3.470
2009/07/02,05:00:01,47,224,40,0.6,7.7,12.4,26.9,85.4,1000.3,0.00,0,0.0,0.0,0,0.0,25.9,0.0,11.6,3.470
2009/07/02,05:10:01,86,225,40,0.4,7.7,12.7,27.0,85.7,1000.2,0.00,0,0.0,0.0,0,0.0,25.9,0.0,11.7,3.470
2009/07/02,05:20:01,52,226,40,0.3,7.8,13.8,26.9,85.2,1000.2,0.00,0,0.0,0.0,0,0.0,26.1,0.0,11.6,3.469
2009/07/02,05:30:01,48,225,42,0.3,7.7,11.8,27.0,85.1,1000.2,0.00,0,0.0,0.0,0,0.0,26.3,0.0,11.8,3.469
2009/07/02,05:40:01,45,224,43,0.1,7.6,12.2,26.9,84.7,1000.2,0.00,0,0.0,0.0,0,0.0,26.1,0.0,11.6,3.469
2009/07/02,05:50:01,43,223,42,0.2,7.5,12.3,26.8,84.3,1000.2,0.00,0,0.0,0.0,0,0.0,26.1,0.0,11.6,3.470
2009/07/02,06:00:01,47,227,45,0.4,7.7,12.6,27.0,84.1,1000.2,0.00,0,0.0,0.0,0,0.0,26.4,0.0,11.9,3.469
2009/07/02,06:10:01,59,230,50,0.2,7.7,12.2,27.0,83.5,1000.4,0.00,0,0.0,0.0,0,0.0,26.8,0.0,11.8,3.469
2009/07/02,06:20:01,56,231,50,0.0,7.4,13.5,27.1,82.7,1000.4,0.00,0,0.0,0.0,0,0.0,27.1,0.0,11.6,3.469
2009/07/02,06:30:01,52,230,49,0.2,7.5,12.8,27.2,82.2,1000.5,0.00,0,0.0,0.0,0,0.0,27.6,0.0,11.6,3.469
2009/07/02,06:40:01,51,229,43,0.3,7.7,12.4,27.3,81.4,1000.5,0.00,0,0.0,0.0,0,0.0,27.8,0.0,11.9,3.469
2009/07/02,06:50:01,50,227,45,0.6,7.6,12.4,27.4,80.8,1000.5,0.00,0,0.0,0.0,0,0.0,28.1,0.0,12.1,3.469
2009/07/02,07:00:01,87,231,51,0.1,7.5,12.5,27.6,80.6,1000.4,0.00,0,0.0,0.0,0,0.0,28.6,0.0,11.9,3.469
2009/07/02,07:10:01,49,227,42,0.5,7.7,12.6,27.7,80.1,1000.5,0.00,0,0.0,0.0,0,0.0,29.0,0.0,11.6,3.469
2009/07/02,07:20:01,46,227,45,0.5,8.0,13.1,27.8,80.3,1000.5,0.00,0,0.0,0.0,0,0.0,29.0,0.0,11.8,3.472
2009/07/02,07:30:01,51,229,46,0.6,8.3,13.6,27.9,80.1,1000.5,0.00,0,0.0,0.0,0,0.0,29.1,0.0,11.7,3.469
2009/07/02,07:40:01,49,228,48,0.2,8.0,14.2,28.0,80.0,1000.7,0.00,0,0.0,0.0,0,0.0,29.5,0.0,11.7,3.469
2009/07/02,07:50:01,52,229,47,0.2,8.2,13.9,28.1,79.7,1000.7,0.00,0,0.0,0.0,0,0.0,29.8,0.0,11.7,3.469
2009/07/02,08:00:01,92,228,48,0.3,8.1,13.9,28.2,79.2,1000.7,0.00,0,0.0,0.0,0,0.0,30.0,0.0,11.8,3.468
2009/07/02,08:10:01,49,228,47,0.1,8.1,13.4,28.3,78.7,1000.7,0.00,0,0.0,0.0,0,0.0,30.3,0.0,11.7,3.468
2009/07/02,08:20:01,54,231,50,0.3,8.1,13.3,28.5,79.2,1000.7,0.00,0,0.0,0.0,0,0.0,30.5,0.0,12.1,3.469
2009/07/02,08:30:01,52,227,47,0.6,8.5,14.0,28.5,78.6,1000.8,0.00,0,0.0,0.0,0,0.0,30.6,0.0,11.9,3.469
2009/07/02,08:40:01,60,228,48,0.6,8.7,14.8,28.6,77.1,1001.0,0.00,0,0.0,0.0,0,0.0,30.8,0.0,11.6,3.469
2009/07/02,08:50:01,50,230,49,0.8,8.7,14.7,28.7,76.9,1001.1,0.00,0,0.0,0.0,0,0.0,30.8,0.0,11.8,3.468
2009/07/02,09:00:01,53,232,47,0.5,8.6,14.9,28.8,76.7,1001.3,0.00,0,0.0,0.0,0,0.0,30.8,0.0,12.1,3.472
2009/07/02,09:10:01,54,229,47,0.3,8.8,15.0,28.8,76.5,1001.3,0.00,0,0.0,0.0,0,0.0,30.8,0.0,11.8,3.467
2009/07/02,09:20:01,54,232,48,0.4,8.6,14.3,28.9,76.4,1001.4,0.00,0,0.0,0.0,0,0.0,31.1,0.0,11.6,3.469
2009/07/02,09:30:01,86,233,39,0.6,8.8,14.3,28.9,76.5,1001.5,0.00,0,0.0,0.0,0,0.0,31.1,0.0,11.8,3.469
2009/07/02,09:40:01,102,233,49,0.0,9.0,14.8,28.9,75.1,1001.4,0.00,0,0.0,0.0,0,0.0,31.3,0.0,11.7,3.468
2009/07/02,09:50:01,99,235,39,0.6,9.1,15.2,29.0,74.4,1001.4,0.00,0,0.0,0.0,0,0.0,31.3,0.0,11.8,3.469
2009/07/02,10:00:01,55,234,43,0.7,9.2,15.1,29.1,74.5,1001.2,0.00,0,0.0,0.0,0,0.0,31.3,0.0,11.7,3.468
2009/07/02,10:10:01,99,239,52,0.7,9.0,16.0,29.1,74.6,1001.1,0.00,0,0.0,0.0,0,0.0,31.5,0.0,11.7,3.468
2009/07/02,10:20:01,91,240,46,0.4,8.7,15.9,29.2,72.9,1001.2,0.01,30,0.8,0.0,0,0.0,31.5,0.0,11.8,3.467
2009/07/02,10:30:01,88,251,63,0.2,7.7,17.3,28.4,73.2,1001.2,0.05,90,0.0,0.0,0,0.0,30.1,0.0,11.7,3.468
2009/07/02,10:40:01,89,265,44,0.2,6.2,16.9,28.4,77.9,1001.2,0.07,200,0.0,0.0,0,0.0,28.6,0.0,11.8,3.469
2009/07/02,10:50:01,95,248,60,0.1,6.6,13.9,28.5,78.9,1001.4,0.00,10,0.0,0.0,0,0.0,29.3,0.0,11.7,3.468
2009/07/02,11:00:01,88,241,39,0.2,7.2,12.9,29.5,77.2,1001.4,0.00,0,0.0,0.0,0,0.0,32.3,0.0,11.8,3.468
2009/07/02,11:10:01,91,250,68,0.2,7.5,12.6,29.5,76.8,1001.4,0.00,0,0.0,0.0,0,0.0,32.6,0.0,11.9,3.467
2009/07/02,11:20:01,96,248,39,0.3,7.5,12.7,29.5,76.9,1001.4,0.00,0,0.0,0.0,0,0.0,32.5,0.0,11.8,3.468
2009/07/02,11:30:01,89,259,37,0.1,6.3,11.8,30.3,73.9,1001.5,0.00,0,0.0,0.0,0,0.0,34.2,0.0,11.8,3.468
2009/07/02,11:40:01,86,258,39,0.1,5.7,11.2,30.8,72.1,1001.5,0.00,0,0.0,0.0,0,0.0,35.7,0.0,11.7,3.465
2009/07/02,11:50:01,88,253,37,0.0,6.1,11.2,30.8,71.9,1001.5,0.00,0,0.0,0.0,0,0.0,35.8,0.0,11.7,3.465
2009/07/02,12:00:01,88,251,48,0.2,6.0,11.3,31.1,69.7,1001.4,0.00,0,0.0,0.0,0,0.0,36.5,0.0,11.9,3.467
2009/07/02,12:10:01,87,257,37,0.2,5.8,11.1,30.9,71.3,1001.3,0.00,0,0.0,0.0,0,0.0,36.0,0.0,11.7,3.467
2009/07/02,12:20:01,81,258,38,0.1,5.5,11.4,30.2,70.9,1001.2,0.00,0,0.0,0.0,0,0.0,34.5,0.0,11.9,3.467
2009/07/02,12:30:01,86,245,46,0.1,6.0,10.9,30.0,73.7,1001.1,0.00,0,0.0,0.0,0,0.0,33.0,0.0,11.7,3.470
2009/07/02,12:40:01,85,244,54,0.0,6.3,11.7,30.3,72.7,1001.1,0.00,0,0.0,0.0,0,0.0,34.0,0.0,12.1,3.467
2009/07/02,12:50:01,86,253,36,0.1,5.9,10.7,30.7,72.3,1001.1,0.00,0,0.0,0.0,0,0.0,35.0,0.0,11.7,3.468
2009/07/02,13:00:01,80,262,67,0.2,5.5,11.9,30.0,68.5,1001.2,0.00,0,0.0,0.0,0,0.0,34.7,0.0,11.9,3.467
2009/07/02,13:10:01,132,318,131,0.1,7.0,14.0,27.0,77.0,1000.8,0.00,0,0.0,0.0,0,0.0,29.0,0.0,11.7,3.468
2009/07/02,13:20:01,186,8,147,0.2,7.2,13.9,26.7,80.8,1000.8,0.00,0,0.0,0.0,0,0.0,27.4,0.0,11.9,3.469
2009/07/02,13:30:01,188,7,187,0.3,7.0,12.8,26.6,80.1,1000.8,0.00,0,0.0,0.0,0,0.0,27.6,0.0,11.6,3.469
2009/07/02,13:40:01,194,16,193,0.4,7.5,14.7,26.3,81.5,1000.6,0.00,0,0.0,0.0,0,0.0,27.1,0.0,11.7,3.469
2009/07/02,13:50:01,235,58,231,0.2,6.7,14.1,26.4,80.2,1000.6,0.00,0,0.0,0.0,0,0.0,28.3,0.0,11.8,3.472
2009/07/02,14:00:01,275,91,265,0.4,6.0,13.4,26.2,79.7,1000.5,0.00,0,0.0,0.0,0,0.0,27.4,0.0,11.8,3.469
2009/07/02,14:10:01,277,102,277,0.2,5.7,11.8,26.2,79.5,1000.4,0.00,0,0.0,0.0,0,0.0,27.6,0.0,11.6,3.469
2009/07/02,14:20:01,325,138,316,0.1,5.1,10.6,26.2,79.8,1000.3,0.00,0,0.0,0.0,0,0.0,27.6,0.0,11.8,3.469
2009/07/02,14:30:01,317,136,309,0.1,5.1,10.6,26.4,80.1,1000.2,0.00,0,0.0,0.0,0,0.0,27.9,0.0,11.7,3.470
2009/07/02,14:40:01,334,155,333,0.1,4.5,10.2,26.8,78.0,1000.2,0.00,0,0.0,0.0,0,0.0,28.8,0.0,11.9,3.469
2009/07/02,14:50:01,348,167,346,0.1,4.3,11.7,27.4,77.2,1000.1,0.00,0,0.0,0.0,0,0.0,30.8,0.0,11.9,3.468